Weather in Koblevo

Ukraine / Mykolaiv District     46°39′37″N   31°12′25″E
temp.,
°C
wind,
m/s
gust,
m/s
humid.,
%
clouds,
%
prec.,
mm/h
press.,
hPa
HPBL,
m
19 september, sun
sun1900:00+16nw358720 0.0 1009135
03:00+15nw36878 0.0 1009148
06:00+14nw368486 0.0 1009145
09:00+17wnw23675 0.0 1010291
12:00+21wsw344888 0.0 10091227
15:00+21ssw675498 0.1 1009924
18:00+20ssw6962100 0.1 1008488
21:00+16nnw7106355 0.1 1010386
20 september, mon
mon2000:00+13nw5106437 0.0 1011408
03:00+11nw496782 0.0 1012457
06:00+11nw596782 0.0 1012476
09:00+12wnw59625 0.0 1013573
12:00+17wnw68463 0.0 10131288
15:00+19wnw683924 0.0 10121932
18:00+18nw564214 0.0 10121419
21:00+13nnw6959100 0.0 1014454
21 september, tue
tue2100:00+12nnw6864100 0.1 1016538
03:00+11nw61058100 0.1 1016741
06:00+10nw5106258 0.0 1017883
09:00+10nw7105616 0.0 10181295
12:00+12nw895377 0.0 10181367
15:00+13nw8105456 0.0 10191295
18:00+13nw794974 0.0 10191534
21:00+11nw585399 0.0 1020804
22 september, wed
wed2200:00+10nw475576 0.0 1020497
03:00+10nw5858100 0.0 1020759
06:00+9nw5771100 0.0 1020892
09:00+9nw5769100 0.0 10191051
12:00+10nw5659100 0.1 10191174
15:00+10nw6757100 0.1 10181259
18:00+10nnw4560100 0.0 1017970
21:00+9nnw4565100 0.1 1017699
23 september, thu
thu2300:00+8nw3571100 0.0 1016379
03:00+8nnw3570100 0.0 1016442
06:00+8nnw3572100 0.1 1015575
09:00+8nnw4578100 0.2 1015794
12:00+10nw556084 0.1 10161231
15:00+11nnw4552100 0.3 10151385
18:00+11nnw3454100 0.1 10161142
21:00+8nw226869 0.1 101739